Location: ??????
(55.6361°N, 38.0803°E)
Time: 03:44:40
(UTC+00:00)

IDEFIX/ARIANE 42P - Pass Details

Date: 30 March 2020
Orbit: 786 x 802 km, 98.3° (Epoch: 30 May)

Event Time Altitude Azimuth Distance (km) Brightness Sun altitude
Rises 02:06:51 0° 13° (NNE) 3,295 6.3 -8.5°
Reaches altitude 10° 02:09:17 10° 6° (N) 2,362 5.4 -8.2°
Maximum altitude 02:14:09 41° 298° (WNW) 1,127 3.1 -7.6°
Drops below altitude 10° 02:18:59 10° 229° (SW) 2,350 4.5 -6.9°
Enters shadow 02:20:17 - 225° (SW) 2,841 4.9 -6.7°
